Inquirer Daily News

Weather

Get conditions and forecasts for any City, State, ZIP code or Country:  
Trenton, NJ
on Friday, February 15, 2013

Friday
Previous Day Next Day
Daily Summary
 ActualAverageRecord
Temperature
Mean Temperature °F 34°F  
Max Temperature 56°F 42°F 73°F (1949)
Min Temperature 30°F 26°F -2°F (1943)
Degree Days
Heating Degree Days 22 31  
Month to date heating degree days 502 483  
Since 1 July heating degree days 3210 3429  
Cooling Degree Days 0 0  
Month to date cooling degree days 0 0  
Year to date cooling degree days 0 0  
Moisture
Dew Point 30°F   
Average Humidity 67    
Maximum Humidity 92    
Minimum Humidity 41    
Precipitation
Precipitation 0.01 in 0.08 in 1.82 in (1876)
Month to date precipitation 0.90 1.15  
Year to date precipitation 3.72 4.31  
Wind
Wind Speed 5 mph   
Max Wind Speed 17 mph   
Max Gust Speed 22 mph   
Visibility 7 miles   
Events Rain   

Key: T is trace of precipitation, MM is missing value
Source: NWS Daily Summary
Time(EST)TemperatureDew PointHumidity Pressure Visibility Wind DirectionWind SpeedGust SpeedPrecipitationEvents Conditions
12:53 AM 33.1°F 28.0°F 82% 30.00 in 6.0 miles SSW 3.5 mph - N/A   Haze
1:53 AM 33.1°F 28.9°F 85% 29.99 in 5.0 miles SSW 3.5 mph - N/A   Mostly Cloudy
2:53 AM 32.0°F 30.0°F 92% 29.99 in 4.0 miles Calm Calm - N/A   Clear
3:53 AM 32.0°F 28.9°F 88% 29.98 in 3.0 miles WSW 3.5 mph - N/A   Clear
4:53 AM 30.9°F 28.0°F 89% 29.98 in 4.0 miles Calm Calm - N/A   Clear
5:53 AM 30.9°F 28.0°F 89% 29.97 in 3.0 miles Calm Calm - N/A   Clear
7:42 AM 32.0°F 30.2°F 93% 30.01 in 3.0 miles WSW 3.5 mph - N/A   Clear
7:50 AM 30.2°F 30.2°F 100% 30.01 in 2.5 miles SSW 4.6 mph - N/A   Clear
7:53 AM 32.0°F 30.0°F 92% 30.01 in 2.5 miles SSW 4.6 mph - N/A   Clear
8:14 AM 33.8°F 30.2°F 87% 30.02 in 3.0 miles Calm Calm - N/A   Clear
8:53 AM 36.0°F 32.0°F 86% 30.00 in 4.0 miles WSW 5.8 mph - N/A   Clear
9:53 AM 41.0°F 34.0°F 76% 30.01 in 6.0 miles SW 5.8 mph - N/A   Haze
10:53 AM 46.0°F 33.1°F 61% 30.01 in 9.0 miles West 8.1 mph - N/A   Clear
11:53 AM 50.0°F 33.1°F 52% 29.98 in 10.0 miles West 6.9 mph - N/A   Clear
12:53 PM 54.0°F 32.0°F 43% 29.95 in 10.0 miles WNW 12.7 mph 16.1 mph N/A   Clear
1:53 PM 54.0°F 35.1°F 49% 29.92 in 10.0 miles WSW 11.5 mph 21.9 mph N/A   Clear
2:53 PM 55.0°F 33.1°F 43% 29.91 in 10.0 miles SW 10.4 mph - N/A   Scattered Clouds
3:53 PM 54.0°F 30.9°F 41% 29.90 in 10.0 miles West 6.9 mph 16.1 mph N/A   Overcast
4:53 PM 53.1°F 30.9°F 43% 29.91 in 10.0 miles NW 3.5 mph - N/A   Overcast
5:53 PM 51.1°F 30.0°F 44% 29.90 in 10.0 miles NNW 5.8 mph - N/A   Scattered Clouds
6:53 PM 48.9°F 28.9°F 46% 29.91 in 10.0 miles North 4.6 mph - N/A   Scattered Clouds
7:53 PM 46.9°F 28.0°F 48% 29.91 in 10.0 miles North 4.6 mph - N/A   Scattered Clouds
8:53 PM 45.0°F 28.0°F 52% 29.93 in 10.0 miles Calm Calm - N/A   Overcast
9:53 PM 44.1°F 27.0°F 51% 29.94 in 10.0 miles NNW 4.6 mph - 0.00 in   Overcast
10:53 PM 42.1°F 30.9°F 65% 29.96 in 10.0 miles NNW 9.2 mph - 0.00 in Rain Light Rain
11:53 PM 37.9°F 33.1°F 83% 29.96 in 8.0 miles North 8.1 mph - 0.01 in Rain Light Rain
Astronomy
Sunrise:06:52 AM (EST) Moon Rise:09:26 AM (EST)2/15
Sunset:05:35 PM (EST) Moon Set:11:34 PM (EST)2/15
Moon Phase
Feb. 15 Feb. 17 Feb. 25 Mar. 04 Mar. 11

Copyright © 2014 The Weather Underground, Inc.